This is the latest recevied weather packets stored in our database for station/object OE6PWE-13. If no packets are shown the sender has not sent any weather packets the latest 10 day(s).
| Time | Temp. | Humidity | Pressure | Rain* | Wind** | Luminosity | Snow |
|---|---|---|---|---|---|---|---|
| 1787991311 | 24.44° C | 59% | 1016 hPa | 0 mm | - | - | - |
| 1787990411 | 22.78° C | 62% | 1016 hPa | 0 mm | - | - | - |
| 1787989511 | 22.22° C | 66% | 1016 hPa | 0 mm | - | - | - |
| 1787988611 | 22.22° C | 66% | 1016 hPa | 0 mm | - | - | - |
| 1787987712 | 21.67° C | 68% | 1016 hPa | 0 mm | - | - | - |
| 1787986812 | 20.56° C | 70% | 1016 hPa | 0 mm | - | - | - |
| 1787985912 | 20.56° C | 72% | 1016 hPa | 0 mm | - | - | - |
| 1787985012 | 20° C | 72% | 1016 hPa | 0 mm | - | - | - |
| 1787984111 | 19.44° C | 75% | 1016 hPa | 0 mm | - | - | - |
| 1787983212 | 19.44° C | 76% | 1016 hPa | 0 mm | - | - | - |
| 1787982318 | 18.89° C | 77% | 1015 hPa | 0 mm | - | - | - |
| 1787981411 | 18.33° C | 77% | 1015 hPa | 0 mm | - | - | - |
| 1787980520 | 18.33° C | 79% | 1015 hPa | 0 mm | - | - | - |
| 1787979612 | 18.89° C | 77% | 1015 hPa | 0 mm | - | - | - |
| 1787978718 | 18.33° C | 75% | 1015 hPa | 0 mm | - | - | - |
| 1787977812 | 18.89° C | 75% | 1015 hPa | 0 mm | - | - | - |
| 1787976912 | 20.56° C | 69% | 1015 hPa | 0 mm | - | - | - |
| 1787976012 | 20° C | 60% | 1015 hPa | 0 mm | - | - | - |
| 1787975111 | 20° C | 70% | 1015 hPa | 0 mm | - | - | - |
| 1787974211 | 20.56° C | 66% | 1014 hPa | 0 mm | - | - | - |
| 1787973312 | 21.67° C | 63% | 1014 hPa | 0 mm | - | - | - |
| 1787972411 | 22.22° C | 58% | 1014 hPa | 0 mm | - | - | - |
| 1787971511 | 22.78° C | 59% | 1013 hPa | 0 mm | - | - | - |
| 1787970612 | 23.89° C | 59% | 1013 hPa | 0 mm | - | - | - |
| 1787969712 | 23.89° C | 66% | 1012 hPa | 0 mm | - | - | - |
* Rain latest hour (hover to see other rain measurements)
** Current wind speed in m/s (hover to see current wind gust speed)